Main page
METAR-TAF:

METAR-TAF

Airports :

Wattisham Flying Station

Wattisham, England

latitude: 52-07N, longitude: 000-58E, elevation: 87 m

Current weather observation

The report was made 32 minutes ago, at 22:50 UTC
Wind 5 kt from the East
Temperature 13°C
Humidity 58%
Pressure 1002 hPa
Visibility 10 km or more

METAR: EGUW 222250Z AUTO 08005KT 9999 FEW150/// 13/05 Q1002

Time: 00:22 (23:22 UTC)


TAF: missing

Weather observations and forecasts of more than 4000 airports (METAR and TAF reports).

The available stations are represented by yellow and red dots on the map.

Hover mouse over dot to see the name of the station.

Then click to see weather observations and forecasts.

To change the map : click on the green buttons with a black cross to zoom in, on the green button with a dash to zoom out, or on the green arrows for adjacent maps.


METAR-TAF: